• In Netherlands
  • List of Countries
  • For 7 days
  • Water Temperature
  • Satellite Maps
  • Weather Map
  • Weather Widgets
  • user-avatar
    Login

    Hourly Weather Mazyr

    Today, 21 September, Thursday

    Time Temperature Precipitation Wind Pressure Humidity
    00:00 +13°C° 0.1 mm 4 mps 746 mmHg 82%
    01:00 +13°C° 0.1 mm 4 mps 745 mmHg 84%
    02:00 +12°C° 0 mm 4 mps 745 mmHg 81%
    03:00 +12°C° 0.3 mm 4 mps 745 mmHg 82%
    04:00 +12°C° 0.3 mm 5 mps 745 mmHg 84%
    05:00 +12°C° 0.3 mm 5 mps 744 mmHg 85%
    06:00 +12°C° 0.2 mm 5 mps 744 mmHg 84%
    07:00 +12°C° 0.2 mm 5 mps 744 mmHg 83%
    08:00 +13°C° 0.2 mm 5 mps 744 mmHg 82%
    09:00 +14°C° 0 mm 5 mps 743 mmHg 78%
    10:00 +16°C° 0 mm 5 mps 743 mmHg 73%
    11:00 +17°C° 0 mm 5 mps 743 mmHg 68%
    12:00 +19°C° 0 mm 5 mps 743 mmHg 67%
    13:00 +20°C° 0 mm 5 mps 743 mmHg 65%
    14:00 +21°C° 0 mm 5 mps 743 mmHg 63%
    15:00 +21°C° 0 mm 4 mps 743 mmHg 66%
    16:00 +21°C° 0 mm 3 mps 743 mmHg 68%
    17:00 +21°C° 0 mm 3 mps 743 mmHg 70%
    18:00 +21°C° 0 mm 3 mps 743 mmHg 71%
    19:00 +20°C° 0 mm 3 mps 743 mmHg 72%
    20:00 +20°C° 0 mm 4 mps 743 mmHg 74%
    21:00 +20°C° 0.2 mm 4 mps 743 mmHg 73%
    22:00 +20°C° 0.2 mm 4 mps 743 mmHg 71%
    23:00 +20°C° 0.2 mm 5 mps 743 mmHg 70%

    Tomorrow, 22 September, Friday

    Time Temperature Precipitation Wind Pressure Humidity
    00:00 +20°C° 0 mm 5 mps 744 mmHg 71%
    01:00 +19°C° 0 mm 5 mps 744 mmHg 72%
    02:00 +19°C° 0 mm 5 mps 744 mmHg 72%
    03:00 +19°C° 0.1 mm 5 mps 744 mmHg 73%
    04:00 +17°C° 0.1 mm 5 mps 744 mmHg 74%
    05:00 +17°C° 0.1 mm 5 mps 744 mmHg 75%
    06:00 +17°C° 0.1 mm 5 mps 745 mmHg 74%
    07:00 +17°C° 0.1 mm 5 mps 745 mmHg 74%
    08:00 +18°C° 0.1 mm 4 mps 745 mmHg 74%
    09:00 +19°C° 0.1 mm 4 mps 746 mmHg 71%
    10:00 +21°C° 0.1 mm 4 mps 746 mmHg 68%
    11:00 +22°C° 0.1 mm 4 mps 746 mmHg 65%
    12:00 +23°C° 0 mm 4 mps 746 mmHg 60%
    13:00 +25°C° 0 mm 5 mps 746 mmHg 56%
    14:00 +26°C° 0 mm 5 mps 747 mmHg 52%
    15:00 +25°C° 0 mm 5 mps 746 mmHg 53%
    16:00 +25°C° 0 mm 5 mps 746 mmHg 54%
    17:00 +23°C° 0 mm 5 mps 746 mmHg 55%
    18:00 +22°C° 0 mm 6 mps 746 mmHg 55%
    19:00 +21°C° 0 mm 6 mps 747 mmHg 56%
    20:00 +20°C° 0 mm 7 mps 747 mmHg 56%
    21:00 +20°C° 0 mm 7 mps 747 mmHg 57%
    22:00 +18°C° 0 mm 7 mps 747 mmHg 59%
    23:00 +17°C° 0 mm 6 mps 748 mmHg 60%

    Day after tomorrow, 23 September, Saturday

    Time Temperature Precipitation Wind Pressure Humidity
    00:00 +16°C° 0 mm 6 mps 748 mmHg 60%
    01:00 +16°C° 0 mm 6 mps 748 mmHg 61%
    02:00 +15°C° 0 mm 6 mps 748 mmHg 61%
    03:00 +14°C° 0 mm 6 mps 748 mmHg 60%
    04:00 +14°C° 0 mm 6 mps 749 mmHg 59%
    05:00 +14°C° 0 mm 6 mps 749 mmHg 58%
    06:00 +14°C° 0.1 mm 6 mps 749 mmHg 58%
    07:00 +14°C° 0.1 mm 6 mps 750 mmHg 58%
    08:00 +14°C° 0.1 mm 6 mps 750 mmHg 58%
    09:00 +15°C° 0 mm 6 mps 750 mmHg 56%
    10:00 +16°C° 0 mm 6 mps 751 mmHg 55%
    11:00 +17°C° 0 mm 6 mps 751 mmHg 53%
    12:00 +17°C° 0 mm 6 mps 751 mmHg 52%
    13:00 +19°C° 0 mm 6 mps 751 mmHg 51%
    14:00 +19°C° 0 mm 6 mps 751 mmHg 50%
    15:00 +19°C° 0 mm 5 mps 751 mmHg 52%
    16:00 +17°C° 0 mm 5 mps 751 mmHg 54%
    17:00 +17°C° 0 mm 4 mps 752 mmHg 56%
    18:00 +17°C° 0 mm 4 mps 752 mmHg 58%
    19:00 +15°C° 0 mm 4 mps 752 mmHg 59%
    20:00 +15°C° 0 mm 5 mps 752 mmHg 61%
    21:00 +14°C° 0 mm 4 mps 752 mmHg 63%
    22:00 +14°C° 0 mm 4 mps 752 mmHg 66%
    23:00 +14°C° 0 mm 4 mps 752 mmHg 68%

    24 September, Sunday

    Time Temperature Precipitation Wind Pressure Humidity
    00:00 +13°C° 0 mm 4 mps 753 mmHg 69%
    01:00 +13°C° 0 mm 4 mps 753 mmHg 69%
    02:00 +12°C° 0 mm 4 mps 753 mmHg 70%
    03:00 +12°C° 0 mm 4 mps 753 mmHg 67%
    04:00 +12°C° 0 mm 4 mps 753 mmHg 64%
    05:00 +12°C° 0 mm 4 mps 753 mmHg 62%
    06:00 +13°C° 0 mm 5 mps 753 mmHg 61%
    07:00 +13°C° 0 mm 5 mps 753 mmHg 61%
    08:00 +13°C° 0 mm 5 mps 754 mmHg 61%
    09:00 +13°C° 0.1 mm 5 mps 754 mmHg 62%
    10:00 +14°C° 0.1 mm 5 mps 754 mmHg 63%
    11:00 +14°C° 0.1 mm 5 mps 754 mmHg 64%
    12:00 +15°C° 0 mm 5 mps 755 mmHg 62%
    13:00 +15°C° 0 mm 5 mps 755 mmHg 59%
    14:00 +16°C° 0 mm 5 mps 755 mmHg 57%
    15:00 +16°C° 0 mm 5 mps 755 mmHg 57%
    16:00 +16°C° 0 mm 5 mps 755 mmHg 57%
    17:00 +17°C° 0 mm 4 mps 755 mmHg 57%
    18:00 +15°C° 0 mm 4 mps 755 mmHg 59%
    19:00 +14°C° 0 mm 4 mps 756 mmHg 61%
    20:00 +13°C° 0 mm 4 mps 756 mmHg 63%
    21:00 +13°C° 0 mm 4 mps 756 mmHg 64%
    22:00 +13°C° 0 mm 4 mps 756 mmHg 65%
    23:00 +12°C° 0 mm 4 mps 756 mmHg 66%

    25 September, Monday

    Time Temperature Precipitation Wind Pressure Humidity
    00:00 +12°C° 0 mm 4 mps 757 mmHg 67%
    01:00 +11°C° 0 mm 4 mps 757 mmHg 68%
    02:00 +11°C° 0 mm 4 mps 757 mmHg 69%
    03:00 +11°C° 0 mm 4 mps 757 mmHg 70%
    04:00 +10°C° 0 mm 4 mps 757 mmHg 71%
    05:00 +10°C° 0 mm 3 mps 757 mmHg 72%
    06:00 +10°C° 0 mm 4 mps 757 mmHg 70%
    07:00 +11°C° 0 mm 4 mps 758 mmHg 68%
    08:00 +12°C° 0 mm 4 mps 758 mmHg 65%
    09:00 +14°C° 0 mm 4 mps 758 mmHg 60%
    10:00 +17°C° 0 mm 4 mps 758 mmHg 55%
    11:00 +19°C° 0 mm 5 mps 758 mmHg 49%
    12:00 +19°C° 0 mm 5 mps 758 mmHg 47%
    13:00 +20°C° 0 mm 5 mps 758 mmHg 46%
    14:00 +21°C° 0 mm 5 mps 758 mmHg 44%
    15:00 +20°C° 0 mm 5 mps 758 mmHg 47%
    16:00 +19°C° 0 mm 4 mps 758 mmHg 50%
    17:00 +19°C° 0 mm 3 mps 758 mmHg 54%
    18:00 +17°C° 0 mm 4 mps 758 mmHg 57%
    19:00 +15°C° 0 mm 4 mps 758 mmHg 60%
    20:00 +14°C° 0 mm 4 mps 758 mmHg 63%
    21:00 +13°C° 0 mm 4 mps 759 mmHg 66%
    22:00 +13°C° 0 mm 4 mps 759 mmHg 68%
    23:00 +12°C° 0 mm 4 mps 759 mmHg 71%

    26 September, Tuesday

    Time Temperature Precipitation Wind Pressure Humidity
    00:00 +11°C° 0 mm 3 mps 759 mmHg 72%
    01:00 +11°C° 0 mm 3 mps 759 mmHg 74%
    02:00 +10°C° 0 mm 3 mps 759 mmHg 75%
    03:00 +9°C° 0 mm 3 mps 759 mmHg 76%
    04:00 +9°C° 0 mm 3 mps 759 mmHg 77%
    05:00 +8°C° 0 mm 3 mps 759 mmHg 78%
    06:00 +9°C° 0 mm 3 mps 759 mmHg 74%
    07:00 +10°C° 0 mm 3 mps 759 mmHg 70%
    08:00 +10°C° 0 mm 3 mps 759 mmHg 66%
    09:00 +12°C° 0 mm 3 mps 759 mmHg 60%
    10:00 +14°C° 0 mm 4 mps 759 mmHg 53%
    11:00 +17°C° 0 mm 4 mps 759 mmHg 46%
    12:00 +17°C° 0 mm 4 mps 759 mmHg 44%
    13:00 +18°C° 0 mm 4 mps 758 mmHg 43%
    14:00 +19°C° 0 mm 4 mps 758 mmHg 41%
    15:00 +18°C° 0 mm 3 mps 758 mmHg 45%
    16:00 +17°C° 0 mm 3 mps 758 mmHg 49%
    17:00 +16°C° 0 mm 3 mps 758 mmHg 53%
    18:00 +14°C° 0 mm 3 mps 758 mmHg 58%
    19:00 +13°C° 0 mm 2 mps 758 mmHg 63%
    20:00 +12°C° 0 mm 2 mps 758 mmHg 68%
    21:00 +10°C° 0 mm 2 mps 758 mmHg 71%
    22:00 +10°C° 0 mm 2 mps 758 mmHg 73%
    23:00 +10°C° 0 mm 2 mps 758 mmHg 75%
    Show more